Theta_e
291 292 291 290 290 290 290 290 290 290 289 288 288 288 288 288 288 287 287 287 286 287 288 288 288 289 288 288 289 289 289 288 285 287 289 290 290 290 291 292 292 291 292
293 291 290 290 289 288 288 289 289 288 289 288 288 287 287 287 287 286 286 286 285 285 286 286 285 286 286 287 287 287 287 288 286 283 286 286 287 288 288 288 288 289 289
290 291 289 288 288 287 288 288 288 288 288 288 287 286 286 287 286 286 286 285 285 285 285 285 284 285 284 285 286 286 286 287 286 284 283 285 285 286 286 286 287 288 288
287 289 288 288 287 287 288 288 287 287 286 286 286 286 286 286 285 285 285 285 284 285 285 285 285 284 284 284 284 284 284 283 283 282 281 282 283 285 285 284 284 286 286
284 285 286 286 287 287 287 286 286 286 285 286 285 285 285 285 284 284 284 284 284 284 285 285 285 285 284 284 283 282 282 282 281 280 280 281 282 282 282 284 283 284 285
280 281 283 284 284 284 285 284 285 285 285 284 284 284 283 283 284 285 284 283 283 283 283 284 284 284 284 284 284 285 284 281 280 281 280 280 281 282 284 283 283 282 280
278 279 280 282 282 283 283 282 282 282 283 283 283 283 282 283 284 284 284 283 282 283 283 283 283 283 282 282 283 283 283 284 284 282 280 281 281 283 284 283 283 282 281
280 279 279 280 280 281 281 280 281 282 281 282 282 282 282 282 284 284 283 282 282 282 282 282 282 282 282 281 280 280 280 281 282 282 282 283 283 284 284 283 283 282 283
281 280 280 280 280 280 280 280 280 281 281 282 282 282 281 281 283 283 283 282 281 281 282 282 282 281 281 282 280 279 279 280 284 285 286 286 287 287 287 285 283 280 279
281 281 282 281 281 280 280 280 281 282 281 282 281 282 281 280 282 282 282 281 279 280 280 281 281 280 281 282 280 280 278 279 281 282 283 285 286 286 287 285 283 279 278
280 280 281 282 282 282 281 281 281 280 281 280 280 280 280 280 279 281 282 280 279 279 280 279 280 282 282 283 283 280 279 281 282 283 282 283 284 284 284 283 283 281 279
278 278 278 280 281 282 280 280 280 279 278 278 278 278 279 279 279 280 281 281 281 280 279 280 280 282 282 282 281 282 282 283 281 281 281 282 283 283 282 282 282 282 282
275 275 277 278 280 280 280 279 279 279 278 278 278 278 278 280 280 281 281 281 281 279 280 280 281 281 281 281 281 281 280 279 279 278 278 280 282 285 282 281 280 279 280
274 275 276 277 278 279 279 279 279 278 278 277 277 277 277 278 279 279 280 280 280 279 280 279 279 280 281 280 278 280 279 279 278 277 278 281 284 283 280 280 279 279 277
273 274 275 276 277 277 277 278 277 278 278 278 278 278 277 276 278 280 280 280 280 281 280 279 278 277 277 277 277 278 278 278 278 279 279 280 281 281 280 280 279 278 275
272 273 273 274 275 276 276 276 279 279 280 280 280 280 279 280 281 281 281 281 281 281 278 276 275 276 276 276 276 276 277 277 277 278 278 280 280 279 279 277 278 276 274
270 271 272 272 274 274 274 274 273 276 279 279 279 279 280 279 280 279 279 280 280 279 275 275 275 275 275 275 275 275 275 276 277 277 279 280 279 279 278 276 276 276 275
270 270 271 273 273 273 273 273 273 273 272 273 276 277 277 277 278 278 278 277 274 274 273 272 272 272 272 272 272 272 273 275 276 278 279 279 279 278 277 276 276 275 274
269 270 271 271 271 272 272 271 272 272 272 271 272 274 274 275 276 276 276 272 271 270 270 270 270 270 269 269 270 271 272 273 275 278 279 279 278 277 276 276 276 274 274
270 270 270 270 270 270 270 270 270 270 270 270 270 270 271 270 269 269 270 270 269 268 269 268 268 268 268 269 270 271 272 274 276 278 278 278 278 277 276 276 275 273 271
269 269 269 269 269 269 269 268 269 268 268 268 268 270 273 271 269 269 269 269 269 269 269 268 268 268 268 268 268 269 272 275 278 278 278 278 277 275 276 276 275 274 273
268 268 268 268 268 268 267 268 267 267 267 267 267 268 271 268 267 266 267 267 267 268 268 267 266 266 266 267 268 268 271 274 277 278 277 276 276 276 276 275 274 272 270
267 266 266 266 266 266 266 267 267 267 266 266 266 266 266 266 265 265 265 266 266 266 266 266 265 265 266 267 269 270 271 273 277 278 277 277 276 276 274 273 272 271 269
264 265 266 266 265 265 265 265 265 266 265 265 265 265 265 265 264 264 264 265 265 265 265 265 265 265 266 267 268 270 272 275 278 278 278 277 275 274 273 272 271 271 267
265 264 264 264 264 264 264 264 264 265 265 265 264 264 264 264 264 264 264 264 264 264 264 265 266 266 266 266 268 269 272 273 277 277 278 276 274 273 272 271 270 268 261
264 263 263 264 264 263 263 263 263 264 264 264 264 264 263 263 263 263 263 263 263 264 265 265 266 266 267 268 269 271 272 276 274 276 276 274 272 271 270 269 268 265 259
Wind_Speed
13 13 12 11 9 9 8 9 8 7 7 7 7 7 6 6 6 6 6 6 7 6 6 7 8 8 6 6 6 7 7 8 11 8 7 9 12 11 12 9 9 10 9
16 14 13 12 10 10 10 9 8 8 8 8 7 7 7 7 6 6 7 6 7 7 7 7 8 7 8 8 7 9 8 9 9 15 10 9 11 11 13 15 11 10 11
17 14 14 13 12 11 11 10 9 9 9 8 8 8 8 7 7 7 7 7 8 8 8 8 9 8 9 7 8 8 7 7 8 9 10 8 8 9 10 11 12 11 9
14 14 14 14 13 12 11 10 9 9 8 7 7 7 7 7 7 7 7 7 7 7 7 8 9 9 9 9 8 8 7 7 8 10 11 8 7 8 8 9 9 8 9
15 13 14 13 11 10 11 9 7 6 7 7 7 7 7 7 6 6 6 7 8 8 8 9 9 9 11 13 8 9 9 8 8 10 11 10 7 9 8 7 9 9 10
15 15 14 13 10 10 8 7 7 8 6 7 8 7 7 5 11 12 10 8 8 8 9 10 10 11 12 18 18 20 17 11 12 10 11 12 11 9 8 8 9 9 9
15 16 15 12 12 9 8 7 9 8 7 9 8 8 8 8 14 15 15 8 8 9 10 10 9 8 9 10 14 18 17 20 22 15 14 12 13 11 9 10 11 10 11
15 16 16 11 10 9 8 10 10 8 10 9 9 9 8 7 15 16 15 9 9 11 11 11 10 11 11 10 12 13 13 12 13 10 13 14 13 12 12 11 12 13 11
18 13 14 10 9 11 12 11 9 8 10 9 7 7 9 9 15 16 13 8 9 10 9 9 9 10 15 18 11 11 12 13 14 21 23 25 25 25 20 9 8 7 11
19 17 16 11 13 12 12 12 9 9 8 5 7 8 9 10 15 16 13 6 9 7 7 8 13 11 18 19 12 10 12 12 11 10 10 12 16 15 20 13 7 9 9
19 19 18 16 15 14 11 10 8 6 6 6 7 7 9 10 10 16 16 8 7 7 7 7 7 17 19 19 21 11 13 15 16 12 10 10 9 9 9 6 8 8 7
18 18 18 18 11 10 10 8 5 4 5 6 6 8 7 9 13 14 14 14 13 9 9 7 8 17 19 21 18 21 24 21 9 10 9 10 9 7 6 7 9 8 7
18 17 17 16 13 9 9 7 5 5 6 6 6 6 7 5 5 12 13 14 15 11 8 12 20 22 23 19 22 22 17 8 9 9 10 9 8 5 3 2 4 5 9
18 17 15 14 13 10 7 7 6 6 6 6 5 7 7 6 5 4 5 6 11 11 13 10 13 17 19 18 12 12 8 8 9 10 11 9 7 3 4 5 5 4 7
15 14 13 10 11 9 8 8 6 7 8 6 6 6 7 8 6 10 11 8 8 9 10 8 7 7 7 8 8 8 7 8 9 9 9 10 8 5 5 4 4 4 7
15 11 10 10 9 8 8 8 12 16 17 18 18 16 9 19 22 20 19 21 20 20 10 9 9 9 8 8 9 9 8 9 9 9 9 9 7 5 5 3 4 4 7
14 13 11 10 8 8 8 7 9 8 14 15 17 19 20 20 21 20 20 21 22 18 9 9 10 8 7 7 8 8 9 8 9 10 10 7 6 6 5 4 4 5 6
12 15 10 9 9 8 8 8 7 8 8 6 10 13 15 18 18 19 20 20 10 9 8 9 9 8 7 7 8 9 9 9 9 10 9 6 7 5 5 5 5 7 5
11 9 10 10 9 9 8 8 8 8 8 8 7 9 8 14 16 18 20 9 9 8 7 8 8 8 8 9 9 10 11 10 10 9 7 6 6 5 6 5 5 5 4
11 16 13 9 9 9 8 8 8 8 8 8 8 7 6 6 7 7 7 8 8 9 8 8 7 8 8 9 9 9 9 10 10 9 6 5 5 5 5 5 5 3 4
11 11 14 10 8 8 9 9 8 8 8 8 9 8 17 10 8 8 8 8 8 8 7 7 6 7 8 9 10 10 11 10 7 5 5 6 5 4 4 6 4 4 2
11 10 10 10 8 9 8 8 8 9 9 9 9 9 18 8 8 9 9 9 8 8 7 7 8 9 9 9 8 10 10 10 7 5 5 4 4 4 4 3 3 2 2
12 13 11 9 9 10 9 8 8 8 9 9 9 9 8 8 8 8 9 9 8 8 7 8 9 9 9 9 10 10 10 10 7 5 6 6 5 5 4 4 4 3 2
12 13 12 10 9 9 9 9 9 11 10 10 9 9 9 9 9 10 10 9 9 8 8 9 9 12 10 10 9 10 9 11 5 5 8 6 6 6 5 5 4 4 4
11 11 11 10 9 9 10 10 10 10 9 9 9 9 9 9 9 9 9 8 9 9 10 9 8 11 14 15 15 15 15 17 9 6 5 6 7 8 6 5 6 5 4
11 12 11 10 9 9 9 10 10 10 10 9 9 9 9 9 9 9 9 9 9 9 9 8 9 13 15 13 15 16 17 13 8 9 5 6 7 6 6 6 8 5 4
Wind_Direction
274 266 257 252 248 245 242 243 240 242 238 239 243 249 252 253 253 255 261 267 266 271 277 272 275 277 273 272 269 266 262 261 269 273 278 285 289 290 293 299 305 304 294
282 270 258 251 243 235 238 238 234 234 235 239 244 245 249 249 250 253 260 269 269 273 276 274 271 276 277 273 273 269 267 269 275 278 275 278 280 289 289 293 294 291 290
300 276 263 253 245 241 237 236 230 233 237 238 238 246 250 251 253 253 254 257 262 267 272 274 276 278 276 274 273 276 276 277 277 282 283 280 279 283 284 284 287 285 286
302 289 273 264 254 244 242 236 229 227 232 231 234 241 245 251 254 258 262 264 269 270 268 269 273 276 277 281 281 278 275 277 279 278 280 276 273 272 275 283 284 284 294
299 283 271 267 271 271 255 245 243 242 236 235 244 247 253 255 257 264 273 277 273 269 266 267 268 271 278 275 274 273 278 276 272 276 278 279 273 281 273 287 286 285 287
302 286 277 266 249 242 263 268 257 247 247 246 246 248 253 256 265 268 267 267 271 271 269 269 269 274 271 277 277 269 263 268 271 274 278 279 281 275 273 274 277 279 290
301 293 281 264 256 240 238 233 243 242 255 249 243 242 244 243 256 265 267 262 260 259 259 261 267 263 262 271 280 282 277 274 269 270 273 274 282 283 292 290 285 286 286
299 303 295 280 268 267 241 239 240 230 236 240 241 238 242 244 257 263 266 261 256 254 256 260 262 269 270 280 286 283 279 271 262 263 264 267 266 269 264 265 270 275 274
307 296 296 283 262 264 257 247 236 227 232 229 229 231 237 246 253 265 269 262 258 258 258 259 259 264 275 284 281 276 277 274 267 268 268 269 264 261 263 272 267 294 287
315 314 311 292 274 264 257 256 236 220 228 228 239 237 242 252 254 264 267 259 262 263 258 257 259 258 268 277 277 270 274 276 273 271 272 273 268 257 257 251 260 271 275
315 314 310 299 280 274 262 250 234 225 228 230 242 249 248 244 255 261 264 258 258 264 263 269 262 266 276 278 280 278 276 281 281 277 277 271 259 237 240 227 229 239 256
314 312 308 309 290 280 259 248 234 237 243 247 254 261 255 248 240 256 265 263 266 264 266 267 267 273 280 285 284 278 279 284 287 274 271 280 263 243 209 219 224 229 239
316 312 313 310 306 295 274 257 235 227 241 252 251 266 266 247 243 264 274 272 272 276 277 278 281 279 274 274 278 282 285 277 272 269 269 266 264 245 214 171 221 231 249
313 315 315 312 310 300 275 258 244 238 235 242 245 263 272 271 262 260 259 260 262 267 267 265 260 265 264 264 273 275 269 266 266 265 271 277 281 188 221 233 237 250 272
309 312 313 313 314 302 286 275 256 247 244 254 253 262 272 270 263 267 277 278 275 275 274 264 257 251 246 255 253 257 263 268 264 264 267 268 261 221 229 213 226 242 263
311 311 312 308 307 299 297 292 276 270 269 266 267 259 258 264 280 288 291 291 293 294 285 278 276 273 269 270 272 275 271 269 263 264 263 259 259 237 238 214 215 230 264
305 306 306 305 303 301 294 288 293 293 286 276 270 271 274 278 285 291 294 292 291 290 271 272 271 274 275 273 274 272 272 265 272 268 266 247 248 243 229 226 235 247 249
297 299 297 301 304 298 294 292 288 286 291 285 278 277 280 282 285 290 295 297 291 278 270 272 272 273 273 274 275 275 275 276 266 262 257 243 248 234 231 229 234 254 238
297 299 301 297 293 293 288 278 278 282 282 285 286 279 281 285 290 289 288 281 281 278 275 272 271 272 270 269 270 269 265 265 264 259 245 235 228 222 233 235 243 233 233
295 300 297 289 287 293 288 286 286 285 285 283 282 286 294 292 279 274 263 258 258 261 266 264 264 267 266 266 271 273 264 265 257 247 235 229 219 221 225 227 231 191 211
300 299 296 287 280 290 290 286 284 283 281 279 279 282 286 287 288 283 280 275 275 271 262 261 266 270 269 267 261 259 273 261 263 236 226 225 208 213 206 233 189 202 185
296 296 301 297 294 289 285 286 289 286 281 280 282 281 290 290 280 276 274 273 273 274 275 274 269 265 262 261 265 272 273 284 254 232 230 217 199 194 211 182 170 175 127
311 305 294 291 292 288 283 278 279 279 280 280 283 286 283 277 275 274 274 274 273 272 269 264 263 263 259 256 250 248 254 261 262 238 224 210 193 187 171 177 171 158 134
301 296 295 293 291 287 283 280 277 276 277 277 276 275 277 276 276 273 273 274 273 271 267 264 260 258 262 259 260 263 263 270 260 238 220 208 179 161 165 164 151 140 114
299 301 297 293 288 287 288 282 280 280 279 277 277 277 277 278 277 274 272 272 271 265 264 264 263 263 260 258 255 256 261 270 251 231 213 184 160 156 160 149 133 122 114
310 305 301 297 292 289 287 287 286 284 281 279 278 278 279 279 278 277 274 270 271 270 271 269 270 270 271 272 267 263 259 246 211 216 178 154 146 147 146 129 127 123 130